Regional Weather Roundup
Issued by NWS Upton, NY

Current Version | Previous Version | Graphics & Text | Print | Product List | Glossary Off
Versions: 1 2 3 4 5 6 7 8 9 10 11 12 13 14 15 16 17 18 19 20 21 22 23 24 25 26 27

000
ASUS41 KOKX 211508
RWROKX

REGIONAL WEATHER ROUNDUP
NATIONAL WEATHER SERVICE NEW YORK NY
1100 AM EDT MON AUG 21 2017

NOTE: "FAIR" INDICATES FEW OR NO CLOUDS BELOW 12,000 FEET WITH NO
SIGNIFICANT WEATHER AND/OR OBSTRUCTIONS TO VISIBILITY.

NYZ071-072-176-178-NJZ106-104-211600-
NEW YORK CITY METRO AREA

CITY           SKY/WX    TMP DP  RH WIND       PRES   REMARKS
Central Park   MOSUNNY   81  65  58 SW3       30.22S
Bronx Bot Gard   N/A    N/A N/A N/A W9        30.22S
LaGuardia APRT PTSUNNY   84  63  49 W8        30.19R
Kennedy INTL   CLOUDY    80  70  71 S8        30.21R
Breezy Point     N/A     75 N/A N/A W7          N/A
Newark/Liberty PTSUNNY   83  62  49 W12       30.20R
Teterboro      CLOUDY    83  63  50 W7        30.18S
$$

NYZ177-179-078>081-211600-
LONG ISLAND NEW YORK

CITY           SKY/WX    TMP DP  RH WIND       PRES   REMARKS
Jones Beach      N/A     73 N/A N/A W7          N/A
Matinecock PT    N/A     77 N/A N/A SW5         N/A
Farmingdale    MOSUNNY   81  62  52 SW8       30.20R
MacArthur/ISP  CLOUDY    83  64  52 W9        30.19S
Shirley        SUNNY     85  66  53 W8        30.19S
Mt Sinai Harb    N/A     79 N/A N/A W5          N/A
Westhampton    CLOUDY    84  61  45 W8        30.20F
East Hampton   FAIR      81  64  56 W5        30.18S
Montauk          N/A     81  66  60 W6        30.19S
$$

NYZ052-065-067-211600-
HUDSON VALLEY

CITY           SKY/WX    TMP DP  RH WIND       PRES   REMARKS
White Plains   MOSUNNY   80  63  55 VRB7      30.20R
Larchmont Harb   N/A     77 N/A N/A S6          N/A
Croton On Huds   N/A     81 N/A N/A CALM        N/A
Newburgh       MOSUNNY   77  66  69 W7        30.21S
Montgomery     MOSUNNY   81  66  60 W5        30.19S
Poughkeepsie   MOSUNNY   78  64  61 W5        30.18R
Albany         MOSUNNY   76  63  64 S6        30.18R
$$

NJZ001-105-106-008-010-013-015-019>022-104-211600-
NEW JERSEY

CITY           SKY/WX    TMP DP  RH WIND       PRES   REMARKS
Newark/Liberty PTSUNNY   83  62  49 W12       30.20R
Teterboro      CLOUDY    83  63  50 W7        30.18S
Caldwell       SUNNY     80  67  64 W5        30.21R
Somerville     SUNNY     82  68  62 CALM      30.19S
Linden         NOT AVBL
Perth Amboy      N/A     79 N/A N/A W7          N/A
Sussex         SUNNY     79  67  66 VRB7      30.21R
Andover          N/A     78  65  63 VRB3      30.23R
Trenton        SUNNY     83  66  56 VRB3      30.21R
Millville      SUNNY     84  70  62 VRB5      30.21S
Atlantic City  MOSUNNY   82  63  52 S5        30.22R
Wrightstown    SUNNY     82  66  57 SW6       30.18S
Toms River     CLOUDY    83  64  52 S7        30.22S
Belmar         CLOUDY    82  65  56 SW5       30.22S
$$

PAZ047>061-062-071-211600-
EASTERN PENNSYLVANIA

CITY           SKY/WX    TMP DP  RH WIND       PRES   REMARKS
Philadelphia   PTSUNNY   82  63  52 S6        30.22R
Allentown      MOSUNNY   82  68  62 CALM      30.21S
Scranton       CLOUDY    78  65  63 VRB3      30.22S
$$

CTZ002-004>006-009-010-012-RIZ004-006-007-MAZ004-011-015-211600-
SOUTHERN NEW ENGLAND
 IN CT

CITY           SKY/WX    TMP DP  RH WIND       PRES   REMARKS
Bradley INTL   PTSUNNY   79  64  60 S6        30.18S
Hartford       MOSUNNY   80  65  59 CALM      30.17S
Danbury        MOSUNNY   78  65  63 W8        30.21R
Wtrbury/Oxford CLOUDY    76  65  68 VRB5      30.22R
Norwalk Harbor   N/A     73 N/A N/A SW9         N/A
Bridgeport     PTSUNNY   78  65  63 SW12      30.19R
Meriden        MOSUNNY   78  65  63 SE5       30.18S
New Haven      PTSUNNY   77  67  71 VRB7      30.19S
Chester        FAIR      79  64  61 CALM      30.19S
Groton         CLOUDY    77  66  68 SW8       30.17S
Wilimantic     MOSUNNY   80  65  59 S3        30.17F

 IN RI

CITY           SKY/WX    TMP DP  RH WIND       PRES   REMARKS
Providence     CLOUDY    84  63  49 W9        30.17S
Block Island   CLOUDY    79  65  62 W8        30.19S
Westerly       CLOUDY    79  63  57 SW8       30.19S
 IN MA

CITY           SKY/WX    TMP DP  RH WIND       PRES   REMARKS
Boston         PTSUNNY   80  59  48 SW5       30.14F
Worcester      MOSUNNY   78  59  51 W9        30.19S
Westfield      MOSUNNY   77  64  64 S5        30.17S
Provincetown   PTSUNNY   75  63  66 W8        30.16S
Nantucket      CLOUDY    78  65  63 W7        30.16F
$$

ANZ330-335-338-340-345-350-353-355-211600-
COASTAL MARINE OBSERVATIONS


STATION/POSITION TIME  SKY/WX   TEMP    WIND        PRES    VSBY  WAVE
                                AIR SEA DIR/SP/G                  HT/PER
                 (UTC)          (F)     (DEG/KT/KT) (MB)    (MI)  (FT/S)
NY HARB ENTRANCE 1350            74 76  270/  6/  6 1022.1          2/ 8
GREAT SOUTH BAY  1415            78 79  250/  6/  8   N/A
23 SSW MONTAUK P 1350            74 73              1022.6          2/ 8
15 E BARNEGAT LI 1430               77                N/A           2/ 8
HUDSON CANYON    1350            75 75  270/  4/  6 1022.4          2/ 8
KINGS POINT      1430            78 74  310/  5/  6 1022.2
EXECUTION ROCKS  NOT AVBL
WESTERN LI SOUND NOT AVBL
CENTRAL LI SOUND NOT AVBL
EASTERN LI SOUND NOT AVBL
ROBBINS REEF     1430                   250/  7/  7 1023.0
$$


>>>>>>>>>>>>>>>>>>>>>>>>>>>> KEY <<<<<<<<<<<<<<<<<<<<<<<<<<<
>                                                          <
>     SKY/WX - Sky Condition/Present Weather               <
>     TMP    - Temperature in Fahrenheit                   <
>     DP     - Dew Point in Fahrenheit                     <
>     RH     - Relative Humidity in Percent                <
>     WIND   - Direction (from) and Speed in MPH           <
>     PRES   - Mean Sea Level Pressure (inches of Hg)      <
>     WCI    - Wind Chill Index                            <
>     VSB    - VISIBILITY IN MILES                         <
>     HX     - HEAT INDEX                                  <
>     TC     - TEMPERATURE IN CELSIUS                      <
>     VRB    - VARIABLE WIND DIRECTION                     <
>                                                          <
>>>>>>>>>>>>>>>>>>>>>>>>>>>> KEY <<<<<<<<<<<<<<<<<<<<<<<<<<<




USA.gov is the U.S. government's official web portal to all federal, state and local government web resources and services.